Regional Weather Roundup
Issued by NWS

Home | Current Version | Previous Version | Text Only | Print | Product List | Glossary On
Versions: 1 2 3 4 5 6 7 8 9 10 11 12 13 14 15 16 17 18 19 20 21 22 23 24 25 26 27 28 29 30 31 32 33 34 35 36 37 38 39 40 41 42 43 44 45 46 47 48 49 50
000
ASCA44 KEWX 060020
RWRMX

LATIN AMERICA AND CARIBBEAN REGIONAL WEATHER ROUNDUP
NATIONAL WEATHER SERVICE AUSTIN/SAN ANTONIO TX
700 PM CDT TUE MAY 05 2015

NOTE: "FAIR" INDICATED FEW OR NO CLOUDS BELOW 12,000 FEET WITH NO
SIGNIFICANT WEATHER AND/OR OBSTRUCTIONS TO VISIBILITY.

BAJA CALIFORNIA

CITY           SKY/WX    TMP DP  RH WIND       PRES   REMARKS
LORETO         PTSUNNY   77  68  73 S6        29.82S
LA PAZ         PTSUNNY   82  50  32 CALM      29.87
MEXICALI       PTSUNNY   88  34  14 S6        29.74F
S.J. DEL CABO  PTSUNNY   77  59  53 E14       29.87S
TIJUANA        PTSUNNY   64  46  52 W12       29.97F

NORTHWESTERN MEXICO

CITY           SKY/WX    TMP DP  RH WIND       PRES   REMARKS
CULIACAN       CLOUDY    88  66  48 NW12      29.82F HX  90
DURANGO        PTSUNNY   81  21  11 SW13      30.06R
GUAYMAS        SUNNY     81  61  50 SW12      29.76F
HERMOSILLO     SUNNY     90  48  24 S17       29.84S
CD. JUAREZ     MOSUNNY   79  37  22 SW16      29.83F
LOS MOCHIS     CLOUDY    79  57  47 W8        29.85S
OBREGON        MOSUNNY   84  52  32 SW14      29.79S

NORTHEASTERN MEXICO

CITY           SKY/WX    TMP DP  RH WIND       PRES   REMARKS
CHIHUAHUA      SUNNY     84  27  12 SW14      29.87F
MATAMOROS      PTSUNNY   81  73  78 E23       29.88S
MONTERREY      PTSUNNY   81  68  65 E6        29.80F
NUEVO LAREDO   PTSUNNY   86  72  62 SE6       29.79F HX  92
REYNOSA        CLOUDY    77  66  69 E14       29.82S
SALTILLO       PTSUNNY   75  61  60 N17       29.95R
TORREON        PTSUNNY   95  27   8 SW6       29.81F
CD. VICTORIA   PTSUNNY   84  66  54 S13       29.80S

WESTERN MEXICO

CITY           SKY/WX    TMP DP  RH WIND       PRES   REMARKS
AGUASCALIENTES PTSUNNY   79  30  17 W15       30.09S
COLIMA         SUNNY     81  66  61 SW14      29.93S
DEL BAJIO      MOSUNNY   86  39  19 W8        30.13S
GUADALAJARA    PTSUNNY   88  34  14 W14       30.02S
MANZANILLO     MOSUNNY   82  72  69 SW12      29.82S
MAZATLAN       CLOUDY    79  59  50 SW12      29.82F
P. VALLARTA    MOSUNNY   81  73  78 SW8       29.84F
URUAPAN        SUNNY     82  57  42 S7        30.08R
ZACATECAS      PTSUNNY   75  34  22 W17       30.16S

CENTRAL MEXICO

CITY           SKY/WX    TMP DP  RH WIND       PRES   REMARKS
CUERNAVACA     PTSUNNY   88  48  25 N6        29.96R
MEXICO CITY    CLOUDY    66  54  63 S14       30.21
MORELIA        PTSUNNY   79  45  29 S15       30.09S
POZA RICA      SUNNY     84  75  74 E7        29.81F HX  92
PUEBLA         PTSUNNY   68  48  49 S8        30.20R
QUERETARO      PTSUNNY   82  43  24 W6        30.14S
S. LUIS POTOSI CLOUDY    82  45  26 E5        30.06R
TAMPICO        PTSUNNY   81  72  74 E18       29.81F
TOLUCA         PTSUNNY   63  48  59 S9        30.30S

SOUTHERN MEXICO

CITY           SKY/WX    TMP DP  RH WIND       PRES   REMARKS
ACAPULCO       MOSUNNY   86  77  74 W9        29.81R HX  97
B. DE HUATULCO CLOUDY    86  75  70 CALM      29.85R HX  95
OAXACA         CLOUDY    75  54  46 SE13      30.08R
P. ESCONDIDO   MOSUNNY   88  77  70 SW12      29.94S HX 100
VERACRUZ       MOSUNNY   84  68  58 E7        29.81F
ZIHUATANEJO    MOSUNNY   86  73  66 SW12      29.82S HX  93

YUCATAN PENINSULA

CITY           SKY/WX    TMP DP  RH WIND       PRES   REMARKS
CAMPECHE       CLEAR     82  75  78 N12G23    29.81S
CANCUN         PTCLDY    81  73  78 E12       29.95R
CHETUMAL       PTCLDY    84  73  70 SE9       29.87S HX  91
CD. DEL CARMEN CLEAR     84  75  74 N12       29.81S HX  92
COZUMEL        PTCLDY    79  72  78 SE14      29.93R
MERIDA         PTCLDY    86  70  58 NE14      29.86R HX  90
MINATITLAN     CLEAR     82  68  61 N12       29.77S
TAPACHULA      PTCLDY    86  79  79 CALM      29.81R HX  99
TUX. GUTIERREZ CLEAR     88  61  40 NW15      29.80R
VILLAHERMOSA   CLEAR     91  68  46 E7        29.82S HX  95

CENTRAL AMERICA

CITY           SKY/WX    TMP DP  RH WIND       PRES   REMARKS
BELIZE CITY    PTCLDY    82  73  74 E6        29.88S
MANAGUA        PTCLDY    90  68  48 SE7       29.77R HX  93

CARIBBEAN

CITY           SKY/WX    TMP DP  RH WIND       PRES   REMARKS
ARUBA          PTCLDY    81  73  78 E23G35    29.89R
CURACAO        PTCLDY    81  73  78 E18       29.92S
KINGSTON       MOCLDY    84  72  65 SE22      29.92R
NASSAU         CLOUDY    75  72  88 CALM      30.03R
SAN JUAN       PTCLDY    81  73  78 E13       30.08R
SANTO DOMINGO  PTCLDY    81  72  74 SE9       30.00R
ST. CROIX      PTCLDY    81  72  74 E14       30.06
ST. KITTS      PTCLDY    79  72  78 NE16      30.06S
ST. MAARTEN    PTCLDY    81  72  74 E13       30.06S
ST. THOMAS     CLEAR     81  70  69 E15       30.06

$$



USA.gov is the U.S. government's official web portal to all federal, state and local government web resources and services.